Location: Unspecified
(0.0000°N, 0.0000°E)
Time: 01:37:31
(UTC+00:00)

Vanguard 1 Rocket - Visible Passes

Search period start: 20 July 2019 00:00
Search period end: 30 July 2019 00:00
Orbit: 651 x 4225 km, 34.3° (Epoch: 18 July)

Date Brightness Start Highest point End Pass type
(mag) Time Alt. Az. Time Alt. Az. Time Alt. Az.
20 Jul 9.3 05:31:31 10° SW 05:38:56 55° SE 05:53:24 10° ENE visible
20 Jul 9.3 18:15:36 10° NW 18:34:57 86° SW 18:44:24 10° SE visible
20 Jul 9.9 20:53:53 10° W 21:00:55 18° SW 21:02:03 18° SW visible
21 Jul 9.4 04:23:19 15° S 04:27:44 26° SE 04:36:35 10° E visible
21 Jul 9.5 19:35:30 10° WNW 19:49:32 39° SW 19:55:01 21° SSE visible
22 Jul 8.8 05:34:20 10° SW 05:41:37 74° SE 05:56:18 10° ENE visible
22 Jul 9.6 18:18:13 10° WNW 18:37:38 69° SW 18:47:18 10° SE visible
22 Jul 10.3 20:59:39 10° WSW 21:03:46 13° SW 21:05:17 12° SSW visible
23 Jul 9.0 04:26:32 21° S 04:30:22 37° SE 04:40:24 10° ENE visible
23 Jul 9.8 19:39:22 10° W 19:52:05 30° SW 19:58:15 15° S visible
24 Jul 9.7 03:19:30 15° SE 03:19:30 15° SE 03:23:32 10° ESE visible
24 Jul 8.6 05:37:21 10° WSW 05:44:29 83° NW 05:58:53 10° NE visible
24 Jul 9.9 18:21:09 10° WNW 18:40:10 54° SW 18:50:02 10° SE visible
25 Jul 8.5 04:29:46 29° SSW 04:33:02 54° SE 04:43:44 10° ENE visible
25 Jul 10.1 19:43:52 10° W 19:54:46 23° SW 20:01:27 11° S visible
26 Jul 9.3 03:22:45 22° SE 03:22:45 22° SE 03:28:14 10° E visible
26 Jul 8.8 05:40:38 10° WSW 05:47:34 60° NNW 06:01:14 10° NE visible
26 Jul 10.1 18:24:31 10° WNW 18:42:39 43° SW 18:52:36 10° SSE visible
27 Jul 7.9 04:33:02 37° SW 04:35:51 79° SE 04:46:41 10° NE visible
27 Jul 10.3 19:49:10 10° WSW 19:57:37 17° SW 20:03:39 10° S visible
28 Jul 8.8 03:26:00 33° ESE 03:26:00 33° ESE 03:32:07 10° ENE visible
28 Jul 10.3 18:28:22 10° W 18:45:11 34° SW 18:55:02 10° SSE visible
29 Jul 7.9 04:36:16 38° WSW 04:38:50 71° NW 04:49:18 10° NE visible
29 Jul 10.5 19:55:38 10° WSW 20:00:45 12° SW 20:04:54 10° SSW visible
